User: anonymous   Login
Location: Meriden
(44.0740°N, 93.3870°W)
Time: 08:48:10
(UTC-05:00)
Language:

AO-27 - Orbit

View from above orbital plane
View from above orbital plane
View from above satellite
View from above satellite

Ground track
Ground track

The orbit data is extracted from the following two-line orbital elements,

1 22825U 93061C   16274.46219580  .00000024  00000-0  26974-4 0  9991
2 22825  98.7720 231.4226 0008782  17.4722 342.6761 14.29969837200281
Epoch (UTC): 30 September 2016 11:05:33
Eccentricity: 0.0008782
inclination: 98.7720°
perigee height: 785 km
apogee height: 798 km
right ascension of ascending node: 231.4226°
argument of perigee: 17.4722°
revolutions per day: 14.29969837
mean anomaly at epoch: 342.6761°
orbit number at epoch: 20028

The dashed part of the orbit path shows where the satellite is in the earth's shadow,  

DLR